Regional Weather Roundup
Issued by NWS Charleston, SC

Current Version | Previous Version | Graphics & Text | Print | Product List | Glossary On
Versions: 1 2 3 4 5 6 7 8 9 10 11 12 13 14 15 16 17 18 19 20 21 22 23 24 25 26 27 28 29 30 31 32 33 34 35 36 37 38 39 40 41 42 43 44 45 46 47 48 49 50
000 ASUS42 KCHS 232011 RWRCHS REGIONAL WEATHER ROUNDUP NATIONAL WEATHER SERVICE CHARLESTON SC 300 PM EST THU FEB 23 2017 NOTE: "FAIR" INDICATES FEW OR NO CLOUDS BELOW 12,000 FEET WITH NO SIGNIFICANT WEATHER AND/OR OBSTRUCTIONS TO VISIBILITY. NOT ALL STATIONS ARE QUALITY CONTROLLED. USE DATA WITH CAUTION... ESPECIALLY DEWPOINT OBSERVATIONS. SCZ027-030-031-034>040-042>050-232100- ...SOUTHEAST SOUTH CAROLINA... CITY SKY/WX TMP DP RH WIND PRES REMARKS N CHARLESTON PTSUNNY 76 57 51 E17 29.81F WATERFRONT PRK N/A 70 63 78 E15 29.80F MOUNT PLEASANT FAIR 73 63 68 NE3 29.82F JOHNS ISLAND FAIR 73 63 68 NE16G24 29.81F PINOPOLIS N/A 70 59 68 E7 29.75F MONCKS CORNER CLOUDY 73 55 53 E10 29.82F SUMMERVILLE CLOUDY 75 55 50 E6 29.82S BEAUFORT MCAS PTSUNNY 75 62 64 E17G24 29.80F BEAUFORT ARPT MOCLDY 72 61 68 E18G26 29.80F HILTON HEAD IS MOSUNNY 72 61 68 NE14G23 29.81F WALTERBORO CLOUDY 77 57 50 E12 29.82S ALLENDALE CLOUDY 75 55 50 CALM 29.80F ...SOUTHERN MIDLANDS AND PEE DEE... CITY SKY/WX TMP DP RH WIND PRES REMARKS GEORGETOWN FAIR 72 59 64 E13 29.86S KINGSTREE FAIR 72 54 53 E8 29.83F ORANGEBURG SUNNY 76 54 46 NE8 29.82F BARNWELL MOCLDY 77 57 50 E9G15 29.82F AIKEN MOCLDY 70 52 52 SE3 29.87S MANNING MOCLDY N/A N/A N/A MISG 29.83S COLUMBIA MOSUNNY 77 51 40 NE12 29.82F SUMTER PTSUNNY 79 52 39 NE9 29.81F FLORENCE PTSUNNY 74 55 51 E13 29.84F MYRTLE BEACH PTSUNNY 68 57 68 E16 29.88F N MYRTLE BEACH MOSUNNY 69 59 70 E16G23 29.86F $$ GAZ063-065-086>088-099>101-113>116-118-119-134>141-150-232100- ...SOUTHEAST GEORGIA... CITY SKY/WX TMP DP RH WIND PRES REMARKS SAVANNAH ARPT PTSUNNY 75 57 53 E15G25 29.80S HUNTER AAF MOSUNNY 75 65 72 E15G22 29.77F FORT STEWART LGT RAIN 75 63 64 E14G25 29.77S STATESBORO CLOUDY 75 62 62 E5 29.80F SYLVANIA CLOUDY N/A N/A N/A E5 29.81F CLAXTON CLOUDY 75 64 69 E9 29.79F ...CSRA...CENTRAL AND FAR SOUTHEAST GEORGIA... CITY SKY/WX TMP DP RH WIND PRES REMARKS THOMSON PTSUNNY 77 57 49 E5 29.86F AUGUSTA-BUSH PTSUNNY 81 54 39 E9 29.81F AUGUSTA-DANIEL MOSUNNY 76 52 43 SE8 29.83F SWAINSBORO FAIR 77 55 47 E6 29.81F VIDALIA PTSUNNY 77 63 61 E12 29.79F EASTMAN MOCLDY 80 38 22 E8 29.82F HAZLEHURST FAIR 77 62 60 NE6 29.78F ALMA PTSUNNY 77 60 55 E12G17 29.77F WAYCROSS PTSUNNY 80 64 58 E15 29.76S JESUP FAIR 77 59 53 E14G24 29.78R BAXLEY PTSUNNY 79 63 57 E9G20 29.77F BRUNSWICK MOSUNNY 75 66 73 NE21 29.77F SAINT SIMONS PTSUNNY 73 62 68 NE15 29.76F $$ SCZ027-028-034-036>038-045-046-048>050-GAZ119-141-232100- ...LAKE AND SUPPLEMENTAL COASTAL OBSERVATIONS... STATION/POSITION TIME TEMP WIND PRES WAVE SWELL AIR SEA DIR/SP/G HT/PER HT/PER/DIR (UTC) (F) (DEG/KT/KT) (MB) (FT/S) (FT/S/D) WINYAH BAY 1845 65 60/ 13 1011.0 LAKE MURRAY 1920 74 90/ 3/ 4 1009.8F ACE BASIN NERRS 1845 76 70/ 5 1009.0 FORT PULASKI 1948 66 62 70/ 17/ 21 1009.2F SAPELO ISLAND 1900 73 50/ 16 1008.0 $$ ANZ835-935-AMZ111-154-330-350-352-354-370-450-454-472-232100- ...C-MAN AND BUOY OBSERVATIONS... STATION/POSITION TIME TEMP WIND PRES WAVE SWELL AIR SEA DIR/SP/G HT/PER HT/PER/DIR (UTC) (F) (DEG/KT/KT) (MB) (FT/S) (FT/S/D) BUOY 41004 NOT AVBL BUOY 41008 1850 64 63 40/ 16/ 19 1007.6 7/ 9 5/130/ 9 FOLLY BEACH CMAN 1900 65 50/ 16/ 18 1010.7F CAPERS NEARSHORE 1908 62 60 50/ 14/ 17 1010.0F FRIPP NEARSHORE 1908 64 61 60/ 16/ 19 1009.4F STATION/POSITION TIME TEMP WIND PRES WAVE SWELL AIR SEA DIR/SP/G HT/PER HT/PER/DIR (UTC) (F) (DEG/KT/KT) (MB) (FT/S) (FT/S/D) 5E ST. MARYS GA 1930 64 N/A 8/ 8 2/110/11 FRYING PAN BUOY 1950 71 70 100/ 14/ 17 1010.5F 7/ 7 5/150/ 7 BUOY 41025 1950 69 73 140/ 16/ 19 1012.5F 5/ 6 2/ 80/11 CAPE LOOKOUT NC 2000 65 90/ 13/ 14 1012.1F BUOY 41002 1950 69 70 100/ 21/ 25 1010.1F 9/ 7 3/ 60/11 BUOY 41010 NOT AVBL ST AUGUSTINE FL 2000 68 68 10/ 19/ 20 1006.0F $$

USA.gov is the U.S. government's official web portal to all federal, state and local government web resources and services.